Content
SEND FEEDBACK

Daily
Averages
Monthly
Summary
United States of America

STATEN ISLAND, NEW YORK


Home > North America > United States > New York
Elevation: 152 feet     Latitude: 40 35N     Longitude: 074 09W

WEATHER
 
SELECT A DAY
Number of Records: 189,740;   Date Range: 1/1/95 - 8/12/14
 
SHARE

PRINT THIS DATA

[ ← Previous Day ]
WEATHER ALMANAC - MARCH 5, 2013
[ Next Day → ]
[ °C ]   °F
Weather ElementAverageHighLow
Temperature40.3 °F48.9 °F (2:51 pm)32 °F (2:51 am)
Dewpoint23.5 °F28.9 °F (11:51 pm)19.9 °F (1:51 am)
Humidity52 %64 % (3:51 am)38 % (2:51 pm)
Barometer29.99 in30.03 in (8:51 am)29.94 in (1:51 am)
Wind Speed7.4 mph13.8 mph (1:51 am)
Wind Gust20.7 mph (1:51 am)
Weather ElementAverage
Visibility10 mi
Wind DirectionSSE (163.5 °)

Weather ElementTotal
Precipitation---
Heating Degree Days24.6 (Base 65)
Averaged from 23 records on March 5, 2013
WEATHER CONDITIONS BREAKOUT
WIND DIRECTION BREAKOUT
WEATHER BY HOUR - MARCH 5, 2013
[ °C ]   °F
Local TimeTemperatureDewpointHumidityBarometerVisibilityWind DirectionWind SpeedGust SpeedPrecipitationEventsConditions
1:51 AM33.1 °F19.9 °F59 %29.94 in10.0 miNW (310°)13.8 mph20.7 mphPartly Cloudy
2:51 AM32.0 °F19.9 °F61 %29.94 in10.0 miNW (310°)11.5 mphPartly Cloudy
3:51 AM32.0 °F21.0 °F64 %29.94 in10.0 miNW (320°)12.7 mph19.6 mphClear
4:51 AM32.0 °F19.9 °F61 %29.96 in10.0 miNW (320°)11.5 mphPartly Cloudy
5:51 AM32.0 °F21.0 °F64 %29.98 in10.0 miNW (310°)9.2 mphPartly Cloudy
6:51 AM32.0 °F21.0 °F64 %30.00 in10.0 miNW (310°)9.2 mphScattered Clouds
7:51 AM34.0 °F21.0 °F59 %30.02 in10.0 miNW (310°)9.2 mphScattered Clouds
8:51 AM36.0 °F21.0 °F55 %30.03 in10.0 miNorth (350°)12.7 mphScattered Clouds
9:51 AM39.0 °F21.9 °F50 %30.02 in10.0 miNorth (350°)9.2 mphClear
10:51 AM42.1 °F23.0 °F47 %30.01 in10.0 miNorth (10°)9.2 mph18.4 mphClear
11:51 AM45.0 °F24.1 °F44 %30.00 in10.0 miNW (320°)11.5 mphClear
12:51 PM46.9 °F24.1 °F41 %29.98 in10.0 miVariable5.8 mphPartly Cloudy
1:51 PM46.0 °F24.1 °F42 %29.98 in10.0 miVariable3.5 mphScattered Clouds
2:51 PM48.9 °F24.1 °F38 %29.98 in10.0 miNorth (10°)4.6 mphScattered Clouds
3:51 PM48.9 °F24.1 °F38 %29.97 in10.0 miNE (50°)5.8 mphScattered Clouds
4:51 PM48.0 °F24.1 °F39 %29.96 in10.0 miNE (50°)8.1 mphScattered Clouds
5:51 PM46.9 °F24.1 °F41 %29.99 in10.0 miNE (50°)5.8 mphScattered Clouds
6:51 PM45.0 °F25.0 °F46 %30.00 in10.0 miEast (80°)4.6 mphScattered Clouds
7:51 PM43.0 °F26.1 °F51 %30.00 in10.0 miNE (50°)3.5 mphScattered Clouds
8:51 PM41.0 °F26.1 °F55 %30.00 in10.0 miCalmScattered Clouds
9:51 PM42.1 °F27.0 °F55 %30.01 in10.0 miSE (140°)3.5 mphMostly Cloudy
10:51 PM41.0 °F28.0 °F60 %30.00 in10.0 miESE (110°)4.6 mphOvercast
11:51 PM41.0 °F28.9 °F62 %29.98 in10.0 miCalmOvercast
Hourly data recorded from KEWR, located miles away from Staten Island, New York







STORIES FROM OUR PARTNERS